Location: York
(31.8935°S, 116.7682°E)
Time: 10:05:00
(UTC+08:00)

deb Explorer IX - Pass Details

Date: 02 October 2022
Orbit: 533 x 1057 km, 38.8° (Epoch: 01 December)

Event Time Altitude Azimuth Distance (km) Brightness Sun altitude
Rises 19:32:57 0° 276° (W) 3,542 ? -17.0°
Reaches altitude 10° 19:35:48 10° 271° (W) 2,517 ? -17.6°
Maximum altitude 19:41:34 51° 195° (SSW) 978 ? -18.8°
Enters shadow 19:44:50 21° 127° (SE) 1,590 ? -19.4°
Drops below altitude 10° 19:46:32 10° 119° (ESE) 2,163 - -19.8°
Sets 19:48:49 0° 113° (ESE) 3,002 - -20.2°
